World > North America > United States > Texas > Cross Roads

Hourly Cross Roads, TX Regional Weather

Feedback E-mail the Weather

Quick WX

Cross Roads, TX Weather Maps

°F °C°F °C
Cross Roads Weather Map
UTC Time: 8/15/2022, 04:30
Your Time:

Cross Roads, TX Regional Weather

Expires:202208150500;;120149
ASUS44 KFWD 150415
RWRTX 
NORTH TEXAS HOURLY WEATHER ROUNDUP
NATIONAL WEATHER SERVICE FORT WORTH TX
1100 PM CDT SUN AUG 14 2022

NOTE: "FAIR" INDICATES FEW OR NO CLOUDS BELOW 12,000 FEET WITH NO
SIGNIFICANT WEATHER AND/OR OBSTRUCTIONS TO VISIBILITY.


TXZ091>094-102>105-117-120-121-131>134-150500-
NORTH CENTRAL TEXAS
  
CITY           SKY/WX    TMP DP  RH WIND       PRES   REMARKS
SHRMAN/DENISON FAIR      88  66  47 SE7       29.95S HX  90           
GAINESVILLE    FAIR      84  66  54 SE3       29.95S                  
BOWIE          FAIR      85  67  55 SE5       29.95R                  
BRIDGEPORT     FAIR      85  65  51 SE5       29.95R                  
DECATUR        FAIR      85  67  54 SE5       29.94S                  
DENTON         FAIR      88  69  53 S5        29.93R HX  92           
MCKINNEY       FAIR      85  69  58 CALM      29.93R                  
BONHAM         FAIR      86  68  55 SE6       29.94S                  
GREENVILLE     MOCLDY    85  69  57 SE5       29.94R                  
ROCKWALL       FAIR      88  69  52 S5        29.94R HX  92           
TERRELL        FAIR      86  67  52 S5        29.93R                  
WAXAHACHIE     FAIR      86  69  56 S5        29.95R HX  90           
CLEBURNE       CLEAR     86  68  54 SE6       29.95R                  
GRANBURY       FAIR      87  68  52 S7        29.95R HX  91           
$$


SKY/WX - Weather  TMP - Temperature  DP - Dew Point  RH - Humidity
WIND - Wind Direction/Speed PRES - Barometric Pressure VSB - Visibility
WCI - Wind Chill Index E13G22 Wind - East Wind 13 mph/Gusts of 22 mph

Trending Headlines

Cross Roads Radar Loop



Cross Roads Quick Facts


National Two Day Weather Forecast


E-mail the Cross Roads Weather Forecast

Voice your opinion or tell us about page issues...